Weather in Arkhangel

Russia / Ivanovo Oblast     57°06′22″N   40°19′21″E
temp.,
°C
wind,
m/s
gust,
m/s
humid.,
%
clouds,
%
prec.,
mm/h
press.,
hPa
HPBL,
m
21 january, fri
fri2100:00−6s61391100 0.1 1003605
03:00−7s51393100 0.2 1003530
06:00−8sse51294100 1.0 1003474
09:00−8sse51194100 1.4 1003445
12:00−7sse51194100 0.7 1003528
15:00−7se51194100 1.6 1002624
18:00−7se51194100 1.1 1001791
21:00−7se51194100 1.9 1002666
22 january, sat
sat2200:00−8se41194100 0.3 1003497
03:00−7se41095100 0.9 1004454
06:00−8se3995100 0.2 1005308
09:00−8ese4109591 0.3 1008364
12:00−6se4993100 0.1 1010497
15:00−6ese489498 0.4 1011557
18:00−6ese3895100 0.4 1014438
21:00−8ese269670 0.4 1016165
23 january, sun
sun2300:00−11e249879 0.1 101881
03:00−15e1110088 0.1 10209
06:00−17ese11100100 0.0 10229
09:00−18se11100100 0.1 10259
12:00−10ssw119478 0.1 1027112
15:00−10wsw119734 0.1 102911
18:00−17nw0010069 0.0 10329
21:00−18nw1110083 0.0 10349
24 january, mon
mon2400:00−20wsw0010095 0.0 10369
03:00−20nnw1110094 0.0 10379
06:00−21n1110096 0.0 10389
09:00−21sse11100100 0.0 10399
12:00−11s239585 0.0 1038133
15:00−9s119730 0.0 103713
18:00−17se1110088 0.0 10379
21:00−18ese11100100 0.0 10369
25 january, tue
tue2500:00−17sse23100100 0.0 103443
03:00−19s24100100 0.1 103246
06:00−19s25100100 0.0 103062
09:00−17s289863 0.0 1028124
12:00−11s489334 0.0 1025245
15:00−10s4119372 0.0 1023314
18:00−11s4139465 0.0 1022316
21:00−12s4129573 0.0 1021304